Regional Weather Roundup
Issued by NWS

Home | Current Version | Previous Version | Graphics & Text | Print | Product List | Glossary On
Versions: 1 2 3 4 5 6 7 8 9 10 11 12 13 14 15 16 17 18 19 20 21 22 23 24 25 26 27 28 29 30 31 32 33 34 35 36 37 38 39 40 41 42 43 44 45 46 47 48 49 50
000
ASUS43 KOAX 030302
RWRNE

WEATHER ROUNDUP FOR NEBRASKA
NATIONAL WEATHER SERVICE OMAHA NE
1000 PM CDT MON MAY 02 2016

NOTES: SATELLITE DATA IS BEING USED TO AUGMENT CLOUD COVER ABOVE
       12000 FEET.
       "FAIR" INDICATES FEW OR NO CLOUDS BELOW 12,000 FEET WITH NO
       SIGNIFICANT WEATHER AND/OR OBSTRUCTIONS TO VISIBILITY.

  * THESE STATIONS DO NOT REPORT WEATHER SUCH AS RAIN...SNOW OR FOG.

NEZ001>004-019>022-054>056-030400-
NEBRASKA PANHANDLE

CITY           SKY/WX    TMP DP  RH WIND       PRES   REMARKS
SCOTTSBLUFF    CLEAR     51  33  50 N10       30.05R
ALLIANCE       CLOUDY    46  38  73 CALM      30.03R
CHADRON        LGT RAIN  51  42  71 VRB3      30.03R
KIMBALL        CLOUDY    47  35  61 NW9       30.08R
SIDNEY         CLOUDY    51  32  48 CALM      30.05R
$$

NEZ057>060-069>072-079>082-030400-
SOUTHWEST NEBRASKA

CITY           SKY/WX    TMP DP  RH WIND       PRES   REMARKS
NORTH PLATTE   PTCLDY    42  37  82 E5        30.02F
IMPERIAL       PTCLDY    53  32  44 SW8       30.04S
LEXINGTON      CLEAR     48  40  73 SE3       30.04R
MCCOOK         PTCLDY    50  37  61 NW5       30.03S
$$

NEZ005>010-023>029-035>040-094-030400-
NORTH CENTRAL NEBRASKA

CITY           SKY/WX    TMP DP  RH WIND       PRES   REMARKS
VALENTINE      LGT RAIN  47  43  86 NW6       30.05R
AINSWORTH      CLOUDY    50  43  75 E3        30.03R
BROKEN BOW     CLEAR     45  40  82 E3        30.02S
ORD            PTCLDY    47  40  76 SW6       30.01S
$$

NEZ041-046>049-061>064-073>077-083>087-030400-
SOUTH CENTRAL NEBRASKA

CITY           SKY/WX    TMP DP  RH WIND       PRES   REMARKS
GRAND ISLAND   PTCLDY    52  41  66 S5        30.05R
AURORA         MOCLDY    52  40  64 S3        30.05R
HASTINGS       PTCLDY    52  39  61 S6        30.04S
KEARNEY *      CLEAR     48  37  66 SE6       30.04S
YORK           MOCLDY    54  41  62 S3        30.05S
$$

NEZ011>018-030>034-042>045-030400-
NORTHEAST NEBRASKA

CITY           SKY/WX    TMP DP  RH WIND       PRES   REMARKS
NORFOLK        PTCLDY    47  40  76 S7        30.03R
ALBION         CLEAR     49  41  74 CALM      30.03S
BLAIR          PTCLDY    56  39  53 CALM      30.04S
COLUMBUS *     MOCLDY    54  36  50 S5        30.05S
FREMONT        CLEAR     51  44  76 CALM      30.04S
TEKAMAH        CLEAR     53  48  83 SW3       30.04R
$$

NEZ050>053-065>068-078-088>093-030400-
SOUTHEAST NEBRASKA

CITY           SKY/WX    TMP DP  RH WIND       PRES   REMARKS
LINCOLN        PTCLDY    53  41  63 CALM      30.06S
OMAHA EPPLEY   PTCLDY    50  42  74 SE3       30.04S
BEATRICE       CLEAR     51  41  70 S5        30.06R
FALLS CITY     CLEAR     52  41  66 CALM      30.05S
NEBRASKA CITY  CLEAR     53  39  59 S3        30.05S
$$

NEZ044-045-051>053-067-030400-
OMAHA AREA

CITY           SKY/WX    TMP DP  RH WIND       PRES   REMARKS
OMAHA EPPLEY   PTCLDY    50  42  74 SE3       30.04S
BLAIR          PTCLDY    56  39  53 CALM      30.04S
FREMONT        CLEAR     51  44  76 CALM      30.04S
WAHOO          FAIR      55  40  56 CALM      30.05R
$$




USA.gov is the U.S. government's official web portal to all federal, state and local government web resources and services.